CW6037 Weather Reports


Display with metric or nautical units.
time (UTC)temp
F
wind
direction
speed
MPH
gust
MPH
rain 1hr
in
rain 24hr
in
rain mn
in
humidity
%
barometer
mb
20180722085302 66 96 4.0 13.0 0.05 0.49 0.33 99 1004.2
20180722084402 66 84 4.0 13.0 0.06 0.49 0.33 99 1004.4
20180722083502 66 71 3.0 13.0 0.04 0.47 0.31 100 1004.4
20180722082602 65 82 3.0 15.0 0.04 0.46 0.30 99 1004.5
20180722081702 65 85 4.0 13.0 0.05 0.46 0.30 99 1004.5
20180722080802 64 65 4.0 13.0 0.06 0.45 0.29 99 1004.5
20180722075902 64 69 4.0 14.0 0.06 0.45 0.29 99 1004.7
20180722075002 64 66 3.0 14.0 0.07 0.44 0.28 99 1004.6
20180722074102 63 64 4.0 13.0 0.07 0.43 0.27 99 1005.2
20180722073202 63 73 5.0 17.0 0.07 0.43 0.27 99 1005.2
20180722072302 63 67 3.0 14.0 0.06 0.42 0.26 99 1005.3
20180722071402 62 73 4.0 14.0 0.04 0.40 0.24 99 1005.4
20180722070502 62 63 4.0 14.0 0.04 0.39 0.23 99 1005.4
20180722065602 62 56 3.0 9.0 0.03 0.38 0.22 99 1006.7
20180722064702 61 63 2.0 11.0 0.01 0.36 0.20 99 1006.7
20180722063802 61 65 5.0 13.0 0.02 0.36 0.20 99 1006.3
20180722062902 61 61 3.0 10.0 0.05 0.36 0.20 98 1006.9
20180722062002 61 70 2.0 11.0 0.07 0.36 0.20 98 1006.9
20180722061102 61 70 3.0 11.0 0.08 0.35 0.20 98 1007.4
20180722060202 61 74 3.0 12.0 0.08 0.35 0.19 98 1007.4
20180722055302 61 56 2.0 8.0 0.10 0.35 0.19 98 1008.0
20180722054402 61 75 2.0 13.0 0.11 0.34 0.18 98 1008.5
20180722053502 61 58 1.0 11.0 0.12 0.33 0.17 98 1008.5
20180722052602 61 79 2.0 7.0 0.12 0.31 0.15 98 1008.9
20180722051702 61 71 2.0 8.0 0.11 0.28 0.13 98 1009.0
20180722050802 61 71 3.0 10.0 0.11 0.27 0.11 98 1009.0
20180722045902 61 68 2.0 9.0 0.11 0.27 0.11 98 1009.5
20180722045002 61 58 3.0 9.0 0.10 0.24 0.08 98 1009.5
20180722044102 61 65 2.0 10.0 0.13 0.23 0.07 98 1009.5
20180722043202 61 79 2.0 11.0 0.12 0.21 0.05 98 1009.5
20180722042302 60 76 2.0 13.0 0.11 0.18 0.03 97 1010.0
20180722041402 60 72 2.0 9.0 0.12 0.17 0.01 97 1010.2
20180722040502 60 69 2.0 6.0 0.12 0.16 0.00 97 1010.2
20180722035602 60 70 3.0 12.0 0.12 0.15 0.15 97 1010.5
20180722034702 60 69 2.0 9.0 0.10 0.12 0.13 96 1010.5
20180722033802 60 43 1.0 7.0 0.07 0.09 0.09 96 1010.6
20180722032902 60 62 3.0 8.0 0.07 0.08 0.09 95 1011.0
20180722032002 60 74 1.0 7.0 0.05 0.06 0.06 95 1011.0
20180722031102 60 34 1.0 7.0 0.04 0.05 0.05 94 1011.2
20180722030202 61 55 2.0 8.0 0.02 0.03 0.04 93 1011.2
20180722025302 61 68 1.0 7.0 0.03 0.03 0.03 92 1011.5
20180722024402 61 57 1.0 9.0 0.02 0.02 0.02 90 1011.6
20180722023502 62 15 1.0 6.0 0.01 0.01 0.01 88 1011.6
20180722022602 62 304 0.0 4.0 0.01 0.01 0.01 87 1012.0
20180722021702 63 8 0.0 4.0 0.01 0.01 0.01 84 1012.0
20180722020802 63 3 0.0 5.0 0.01 0.01 0.01 81 1012.1
20180722015902 63 286 0.0 3.0 0.01 0.01 0.01 79 1012.4
20180722015002 64 35 0.0 1.0 0.00 0.00 0.00 77 1012.3
20180722014102 64 259 0.0 3.0 0.00 0.00 0.00 76 1012.6
20180722013202 64 261 0.0 2.0 0.00 0.00 0.00 75 1012.6
20180722012302 64 261 0.0 1.0 0.00 0.00 0.00 75 1012.6
20180722011402 64 261 0.0 1.0 0.00 0.00 0.00 76 1012.6
20180722010502 64 264 0.0 1.0 0.00 0.00 0.00 78 1012.7
20180722005602 64 276 0.0 2.0 0.00 0.00 0.00 79 1013.0
20180722004702 64 344 0.0 2.0 0.00 0.00 0.00 81 1013.0
20180722003802 64 327 0.0 2.0 0.00 0.00 0.00 83 1013.2
20180722002902 64 280 0.0 1.0 0.00 0.00 0.00 83 1013.3
20180722002002 65 281 0.0 2.0 0.00 0.00 0.00 83 1013.3
20180722001102 65 281 0.0 1.0 0.00 0.00 0.00 85 1013.5
20180722000202 65 294 0.0 3.0 0.00 0.00 0.00 84 1013.5
20180721235302 65 338 0.0 3.0 0.00 0.00 0.00 82 1013.6
20180721234402 66 342 0.0 4.0 0.00 0.00 0.00 81 1013.5
20180721233502 66 105 0.0 3.0 0.00 0.00 0.00 80 1013.5
20180721232602 67 281 0.0 4.0 0.00 0.00 0.00 81 1013.7
20180721231702 68 281 0.0 1.0 0.00 0.00 0.00 76 1013.7
20180721230802 68 284 1.0 4.0 0.00 0.00 0.00 75 1013.7
20180721225902 69 302 1.0 3.0 0.00 0.00 0.00 72 1013.7
20180721225002 70 326 1.0 5.0 0.00 0.00 0.00 70 1013.7
20180721224102 70 52 0.0 3.0 0.00 0.00 0.00 69 1013.7
20180721223202 70 37 1.0 6.0 0.00 0.00 0.00 69 1013.7
20180721222302 70 45 1.0 7.0 0.00 0.00 0.00 69 1013.7
20180721221402 70 47 1.0 4.0 0.00 0.00 0.00 67 1013.7
20180721220502 71 146 1.0 6.0 0.00 0.00 0.00 68 1013.7
20180721215602 71 118 2.0 8.0 0.00 0.00 0.00 66 1013.7
20180721214702 71 144 1.0 7.0 0.00 0.00 0.00 68 1013.7
20180721213802 71 48 0.0 2.0 0.00 0.00 0.00 66 1013.7
20180721212902 71 114 1.0 6.0 0.00 0.00 0.00 65 1013.7
20180721212002 71 132 1.0 11.0 0.00 0.00 0.00 65 1013.7
20180721211102 71 62 0.0 6.0 0.00 0.00 0.00 64 1013.7
20180721210202 71 81 1.0 5.0 0.00 0.00 0.00 63 1013.7
20180721205302 71 91 1.0 6.0 0.00 0.00 0.00 64 1014.0
20180721204402 72 89 1.0 7.0 0.00 0.00 0.00 64 1014.1
20180721203502 72 94 1.0 6.0 0.00 0.00 0.00 64 1014.1
20180721202602 72 68 1.0 7.0 0.00 0.00 0.00 65 1014.1
20180721201702 72 103 1.0 8.0 0.00 0.00 0.00 64 1014.1
20180721200802 73 129 1.0 8.0 0.00 0.00 0.00 65 1014.2
20180721195902 73 123 2.0 7.0 0.00 0.00 0.00 65 1014.2
20180721195002 73 144 2.0 10.0 0.00 0.00 0.00 68 1014.3
20180721194102 73 93 1.0 5.0 0.00 0.00 0.00 66 1014.3
20180721193202 73 63 1.0 4.0 0.00 0.00 0.00 66 1014.3
20180721192302 73 96 1.0 5.0 0.00 0.00 0.00 70 1014.5
20180721191402 73 172 1.0 6.0 0.00 0.00 0.00 68 1014.5
20180721190502 73 140 1.0 9.0 0.00 0.00 0.00 69 1014.5
20180721185602 74 123 3.0 13.0 0.00 0.00 0.00 66 1014.6
20180721184702 74 125 2.0 10.0 0.00 0.00 0.00 66 1014.6
20180721183802 74 124 2.0 10.0 0.00 0.00 0.00 64 1014.8
20180721182902 74 137 2.0 6.0 0.00 0.00 0.00 64 1014.8
20180721182002 74 129 3.0 10.0 0.00 0.00 0.00 64 1014.8
20180721181102 74 123 2.0 13.0 0.00 0.00 0.00 62 1014.8
20180721180202 74 136 1.0 6.0 0.00 0.00 0.00 67 1014.8
20180721175302 74 144 2.0 8.0 0.00 0.00 0.00 63 1015.1
20180721174402 74 133 2.0 7.0 0.00 0.00 0.00 63 1015.2
20180721173502 75 127 2.0 9.0 0.00 0.00 0.00 62 1015.3
20180721172602 75 117 3.0 9.0 0.00 0.00 0.00 62 1015.2
20180721171702 76 99 2.0 9.0 0.00 0.00 0.00 61 1015.2
20180721170802 76 90 3.0 14.0 0.00 0.00 0.00 62 1015.3
20180721165902 76 126 3.0 13.0 0.00 0.00 0.00 64 1015.4
20180721165002 77 120 4.0 15.0 0.00 0.00 0.00 59 1015.4
20180721164102 77 95 2.0 9.0 0.00 0.00 0.00 59 1015.4
20180721163202 78 105 4.0 11.0 0.00 0.00 0.00 58 1015.4
20180721162302 79 123 3.0 16.0 0.00 0.00 0.00 56 1015.6
20180721161402 79 133 2.0 7.0 0.00 0.00 0.00 57 1015.8
20180721160502 78 125 3.0 11.0 0.00 0.00 0.00 61 1015.8
20180721155602 77 80 3.0 8.0 0.00 0.00 0.00 60 1015.9
20180721154702 76 100 4.0 12.0 0.00 0.00 0.00 61 1015.9
20180721153802 77 111 3.0 14.0 0.00 0.00 0.00 59 1015.9
20180721152902 76 136 4.0 17.0 0.00 0.00 0.00 61 1016.4
20180721152002 76 124 4.0 17.0 0.00 0.00 0.00 61 1016.4
20180721151102 76 129 3.0 16.0 0.00 0.00 0.00 60 1016.1
20180721150202 76 83 2.0 13.0 0.00 0.00 0.00 63 1016.1
20180721145302 74 140 3.0 13.0 0.00 0.00 0.00 65 1016.0
20180721144402 73 136 4.0 13.0 0.00 0.00 0.00 64 1016.4
20180721143502 73 132 3.0 12.0 0.00 0.00 0.00 68 1016.4
20180721142602 73 118 3.0 9.0 0.00 0.00 0.00 66 1016.5
20180721141702 72 132 3.0 11.0 0.00 0.00 0.00 66 1016.5
20180721140802 72 150 2.0 11.0 0.00 0.00 0.00 65 1016.5
20180721135902 72 151 3.0 10.0 0.00 0.00 0.00 68 1016.4
20180721135002 72 133 3.0 10.0 0.00 0.00 0.00 70 1016.4
20180721134102 71 121 2.0 8.0 0.00 0.00 0.00 72 1016.5
20180721133202 70 125 3.0 11.0 0.00 0.00 0.00 74 1016.5
20180721132302 69 141 3.0 13.0 0.00 0.00 0.00 73 1016.5
20180721131402 68 147 3.0 10.0 0.00 0.00 0.00 75 1016.8
20180721130502 69 144 3.0 12.0 0.00 0.00 0.00 77 1016.9
20180721125602 69 130 2.0 11.0 0.00 0.00 0.00 78 1016.7
20180721124702 68 137 2.0 11.0 0.00 0.00 0.00 81 1016.7
20180721123802 68 91 0.0 3.0 0.00 0.00 0.00 83 1016.7
20180721122902 67 119 1.0 4.0 0.00 0.00 0.00 84 1016.8
20180721122002 67 66 0.0 2.0 0.00 0.00 0.00 85 1016.8
20180721121102 67 71 0.0 3.0 0.00 0.00 0.00 86 1016.5
20180721120202 66 251 0.0 1.0 0.00 0.00 0.00 88 1016.5
20180721115302 65 288 0.0 1.0 0.00 0.00 0.00 89 1016.5
20180721114402 64 0 0.0 0.0 0.00 0.00 0.00 90 1016.5
20180721113502 64 175 2.0 8.0 0.00 0.00 0.00 88 1016.5
20180721112602 63 255 2.0 7.0 0.00 0.00 0.00 91 1016.5
20180721111702 62 292 0.0 1.0 0.00 0.00 0.00 93 1016.5
20180721110802 62 292 0.0 2.0 0.00 0.00 0.00 93 1016.5
20180721105902 62 286 0.0 3.0 0.00 0.00 0.00 94 1016.7
20180721105002 61 270 0.0 1.0 0.00 0.00 0.00 94 1016.7
20180721104102 61 261 0.0 3.0 0.00 0.00 0.00 94 1016.5
20180721103202 61 188 0.0 1.0 0.00 0.00 0.00 94 1016.5
20180721102302 61 188 0.0 1.0 0.00 0.00 0.00 94 1016.5
20180721101402 61 199 0.0 1.0 0.00 0.00 0.00 94 1016.5
20180721100502 60 332 0.0 3.0 0.00 0.00 0.00 94 1016.5
20180721095602 60 17 0.0 4.0 0.00 0.00 0.00 94 1016.5
20180721094702 61 17 0.0 1.0 0.00 0.00 0.00 93 1016.5
20180721093802 61 18 0.0 1.0 0.00 0.00 0.00 93 1016.5
20180721092902 61 18 0.0 2.0 0.00 0.00 0.00 93 1016.5
20180721092002 61 28 0.0 4.0 0.00 0.00 0.00 93 1016.5
20180721091102 61 0 0.0 0.0 0.00 0.00 0.00 93 1016.6
20180721090202 61 45 0.0 1.0 0.00 0.00 0.00 92 1016.6